Flag for Canada Weather past 2 weeks in Riverview, New Brunswick, Canada

Now
63 °F

Partly sunny.


Feels Like: 63 °F
Forecast: 59 / 68 °F
Wind: 5 mph from Northeast

Location: Moncton

Current Time: Jul 24, 2014 at 8:33:18 PM

Latest Report: Jul 24, 2014 at 8:00 PM


Visibility: 15 mi

Pressure: 29.78 "Hg

Humidity: 94%

Dew point: 61 °F

Location of RiverviewLocation

Historic Weather in Riverview — Graph

°F

Riverview temperature yesterday

Maximum temperature yesterday: 86 °F (at 2:00 PM)
Minimum temperature yesterday: 59 °F (at 6:00 AM)
Average temperature yesterday: 75 °F

Past Weeks' High & Low Weather Summary

 TemperatureHumidityPressure
High86 °F (Jul 23, 2:00 PM)100% (Jul 18, 2:00 AM)30.26 "Hg (Jul 18, 2:00 AM)
Low54 °F (Jul 12, 5:00 AM)37% (Jul 12, 2:00 PM)29.66 "Hg (Jul 23, 6:00 PM)
Average70 °F74%29.98 "Hg
* Reported Jul 9 7:00 PM — Jul 24 7:00 PM, Riverview, Weather by CustomWeather, © 2014

Note: Actual official high and low records may vary slightly from our data, if they occured in-between our weather recording intervals... More about our weather records

Advertising

Riverview weather history for previous 24 hours

 ConditionsComfort  
Time TempWeatherWind HumidityBarometerVisibility
7:00 PM
Jul 24
63 °FBroken clouds.3 mph94%29.78 "Hg15 mi
6:00 PM63 °FSprinkles. Mostly cloudy.8 mph94%29.79 "Hg15 mi
5:00 PM63 °FSprinkles. Mostly cloudy.9 mph94%29.78 "Hg15 mi
4:00 PM63 °FSprinkles. Low clouds.7 mph94%29.78 "Hg8 mi
3:00 PM64 °FLow clouds.7 mph88%29.78 "Hg15 mi
2:00 PM63 °FSprinkles. Fog.7 mph100%29.79 "Hg2 mi
1:00 PM63 °FSprinkles. Fog.6 mph100%29.79 "Hg2 mi
12:00 PM63 °FSprinkles. Low clouds.7 mph94%29.79 "Hg12 mi
11:00 AM63 °FSprinkles. Low clouds.13 mph94%29.79 "Hg12 mi
10:00 AM63 °FSprinkles. Mostly cloudy.9 mph94%29.79 "Hg8 mi
9:00 AM63 °FSprinkles. Overcast.3 mph94%29.79 "Hg8 mi
8:02 AM64 °FSprinkles. Mostly cloudy.6 mph88%29.77 "Hg15 mi
8:00 AM64 °FMostly cloudy.7 mph88%29.76 "Hg15 mi
7:00 AM66 °FMostly cloudy.No wind94%29.74 "Hg12 mi
6:00 AM66 °FOvercast.5 mph94%29.74 "Hg12 mi
5:00 AM66 °FMostly cloudy.5 mph94%29.72 "Hg15 mi
4:00 AM66 °FOvercast.8 mph94%29.72 "Hg15 mi
3:00 AM66 °FOvercast.No wind94%29.71 "Hg12 mi
2:00 AM68 °FSprinkles. Mostly cloudy.6 mph94%29.71 "Hg15 mi
1:00 AM70 °FPassing clouds.7 mph83%29.70 "Hg15 mi
12:00 AM72 °FPartly cloudy.12 mph78%29.70 "Hg15 mi
11:00 PM
Jul 23
73 °FPartly cloudy.13 mph74%29.70 "Hg15 mi
10:00 PM73 °FPassing clouds.12 mph78%29.69 "Hg15 mi
9:00 PM77 °FScattered clouds.16 mph69%29.68 "Hg15 mi
8:00 PM81 °FScattered clouds.15 mph62%29.67 "Hg15 mi
Weather by CustomWeather, © 2014

See weather overviewHow to use our weather pages